This is the latest recevied weather packets stored in our database for station/object K1BWE-1. If no packets are shown the sender has not sent any weather packets the latest 10 day(s).
| Time | Temp. | Humidity | Pressure | Rain* | Wind** | Luminosity | Snow |
|---|---|---|---|---|---|---|---|
| 1777745935 | 28.89° C | 18% | 1016.7 hPa | 0 mm | - | 795 W/m² | - |
| 1777745634 | 28.33° C | 18% | 1017 hPa | 0 mm | - | 820 W/m² | - |
| 1777745332 | 28.89° C | 19% | 1016.8 hPa | 0 mm | - | 822 W/m² | - |
| 1777745028 | 27.78° C | 20% | 1017.3 hPa | 0 mm | - | 806 W/m² | - |
| 1777744724 | 28.89° C | 19% | 1017.4 hPa | 0 mm | - | 803 W/m² | - |
| 1777744418 | 28.89° C | 20% | 1017.1 hPa | 0 mm | - | 776 W/m² | - |
| 1777744116 | 28.33° C | 21% | 1017.1 hPa | 0 mm | - | 759 W/m² | - |
| 1777743813 | 28.33° C | 22% | 1017.4 hPa | 0 mm | - | 783 W/m² | - |
| 1777743509 | 27.22° C | 22% | 1017.3 hPa | 0 mm | - | 803 W/m² | - |
| 1777743206 | 27.22° C | 21% | 1017.2 hPa | 0 mm | - | 798 W/m² | - |
| 1777742905 | 27.78° C | 20% | 1017.2 hPa | 0 mm | - | 795 W/m² | - |
| 1777742601 | 27.22° C | 23% | 1017.2 hPa | 0 mm | - | 798 W/m² | - |
| 1777742297 | 26.67° C | 22% | 1017.2 hPa | 0 mm | - | 798 W/m² | - |
| 1777741994 | 26.67° C | 21% | 1017.3 hPa | 0 mm | - | 800 W/m² | - |
| 1777741691 | 26.67° C | 22% | 1017.2 hPa | 0 mm | - | 824 W/m² | - |
| 1777741387 | 26.67° C | 23% | 1017.1 hPa | 0 mm | - | 846 W/m² | - |
| 1777741083 | 26.11° C | 23% | 1017.1 hPa | 0 mm | - | 895 W/m² | - |
| 1777740780 | 26.11° C | 22% | 1017.3 hPa | 0 mm | - | 871 W/m² | - |
| 1777740477 | 26.67° C | 24% | 1016.8 hPa | 0 mm | - | 855 W/m² | - |
| 1777740175 | 26.11° C | 23% | 1017.3 hPa | 0 mm | - | 799 W/m² | - |
| 1777739869 | 26.67° C | 24% | 1017.2 hPa | 0 mm | - | 765 W/m² | - |
| 1777739567 | 26.11° C | 25% | 1017.4 hPa | 0 mm | - | 746 W/m² | - |
| 1777739264 | 27.22° C | 23% | 1017.2 hPa | 0 mm | - | 718 W/m² | - |
| 1777738961 | 26.11° C | 24% | 1017.1 hPa | 0 mm | - | 692 W/m² | - |
| 1777738658 | 26.11° C | 26% | 1017.1 hPa | 0 mm | - | 654 W/m² | - |
* Rain latest hour (hover to see other rain measurements)
** Current wind speed in m/s (hover to see current wind gust speed)